SPACEBEE-35 (46934 NORAD) Tracking and Keplerian Element Data
This shows tracking and keplerian element data for the satellite.
Feedback or suggestion? Click here.
Element | Value |
Catalog | 46934 |
Name | SPACEBEE-35 |
Epoch Orbit | 848 |
Epoch Day | 14.90105015 |
Epoch Year | 2021 |
RAAN | 154.3926 |
Inclination | 97.374 |
Eccentricity | 0.0017549 |
Argument of Perigee | 105.2076 |
Mean Anonmoly | 255.1102 |
Mean Motion | 15.21711145 |
Decay Rate | 4.627E-05 |
L1 | 1 46934U 20085F 21014.90105015 .00004627 00000-0 20662-3 0 9998 |
L2 | 2 46934 97.3740 154.3926 0017549 105.2076 255.1102 15.21711145 8489 |
Live tracking and technical data element details for SPACEBEE-35 (NORAD 46934). SPACEBEE-35 can be tracked NOW for your location showing map with azimuth and elevation plus other details from your city location.
Track the satellite on the map from your city or location and see movement details for azimuth, elevation, latitude, longitude, range, height, and movement on the map or in text.
IsCatalogInMostPopularTable: catalog: 46934, numindb: 23
Update: records affected: 1
GetName: 46934 SPACEBEE-35
Hit Count: updated at: Fri, 15 Jan 2021 23:10:45 GMT